Time,TemperatureF,DewpointF,PressureIn,WindDirection,WindDirectionDegrees,WindSpeedMPH,WindSpeedGustMPH,Humidity,HourlyPrecipIn,Conditions,Clouds,dailyrainin,SolarRadiationWatts/m^2,SoftwareType,DateUTC
2013-02-08 00:11:00,31.0,30.0,-100.00,South,171,0.0,0.0,97,-99.99,,,0.01,0.000000,,2013-02-08 08:11:00,
2013-02-08 00:21:00,31.0,30.0,-100.00,South,171,0.0,0.0,97,-99.99,,,0.01,0.000000,,2013-02-08 08:21:00,
2013-02-08 00:32:00,31.0,30.0,-100.00,South,171,0.0,0.0,97,-99.99,,,0.01,0.000000,,2013-02-08 08:32:00,
2013-02-08 00:41:00,31.0,30.0,-100.00,South,171,0.0,0.0,97,-99.99,,,0.01,0.000000,,2013-02-08 08:41:00,
2013-02-08 01:21:00,31.0,31.0,-100.00,South,170,0.0,0.0,98,0.00,,,0.01,0.000000,,2013-02-08 09:21:00,
2013-02-08 01:31:00,31.0,31.0,-100.00,South,170,0.0,0.0,98,0.00,,,0.01,0.000000,,2013-02-08 09:31:00,
2013-02-08 01:42:00,31.0,31.0,-100.00,South,170,0.0,0.0,98,0.00,,,0.01,0.000000,,2013-02-08 09:42:00,
2013-02-08 01:51:00,31.0,31.0,-100.00,South,170,0.0,0.0,98,0.00,,,0.01,0.000000,,2013-02-08 09:51:00,
2013-02-08 02:22:00,31.0,30.0,-100.00,South,179,0.0,0.0,97,0.00,,,0.01,0.000000,,2013-02-08 10:22:00,
2013-02-08 02:31:00,31.0,30.0,-100.00,South,179,0.0,0.0,97,0.00,,,0.01,0.000000,,2013-02-08 10:31:00,
2013-02-08 02:41:00,31.0,30.0,-100.00,South,179,0.0,0.0,97,0.00,,,0.01,0.000000,,2013-02-08 10:41:00,
2013-02-08 02:51:00,31.0,30.0,-100.00,South,179,0.0,0.0,97,0.00,,,0.01,0.000000,,2013-02-08 10:51:00,
2013-02-08 02:52:00,31.0,30.0,-100.00,SSW,203,0.0,0.0,97,0.00,,,0.01,0.000000,,2013-02-08 10:52:00,
2013-02-08 03:21:00,31.0,30.0,-100.00,SSW,203,0.0,0.0,97,0.00,,,0.01,0.000000,,2013-02-08 11:21:00,
2013-02-08 03:32:00,31.0,30.0,-100.00,SSW,203,0.0,0.0,97,0.00,,,0.01,0.000000,,2013-02-08 11:32:00,
2013-02-08 03:41:00,31.0,30.0,-100.00,SSW,203,0.0,0.0,97,0.00,,,0.01,0.000000,,2013-02-08 11:41:00,
2013-02-08 03:52:00,30.0,29.0,-100.00,South,179,0.0,0.0,96,0.00,,,0.01,0.000000,,2013-02-08 11:52:00,
2013-02-08 04:11:00,30.0,29.0,-100.00,South,179,0.0,0.0,96,0.00,,,0.01,0.000000,,2013-02-08 12:11:00,
2013-02-08 04:22:00,30.0,29.0,-100.00,South,179,0.0,0.0,96,0.00,,,0.01,0.000000,,2013-02-08 12:22:00,
2013-02-08 04:32:00,30.0,29.0,-100.00,South,179,0.0,0.0,96,0.00,,,0.01,0.000000,,2013-02-08 12:32:00,
2013-02-08 04:42:00,30.0,29.0,-100.00,South,179,0.0,0.0,96,0.00,,,0.01,0.000000,,2013-02-08 12:42:00,
2013-02-08 05:11:00,30.0,29.0,-100.00,SSE,168,0.0,0.0,96,0.00,,,0.01,0.000000,,2013-02-08 13:11:00,
2013-02-08 05:21:00,30.0,29.0,-100.00,SSE,168,0.0,0.0,96,0.00,,,0.01,0.000000,,2013-02-08 13:21:00,
2013-02-08 05:32:00,30.0,29.0,-100.00,SSE,168,0.0,0.0,96,0.00,,,0.01,0.000000,,2013-02-08 13:32:00,
2013-02-08 05:42:00,30.0,29.0,-100.00,SSE,168,0.0,0.0,96,0.00,,,0.01,0.000000,,2013-02-08 13:42:00,
2013-02-08 05:51:00,30.0,29.0,-100.00,SSE,168,0.0,0.0,96,0.00,,,0.01,0.000000,,2013-02-08 13:51:00,
2013-02-08 05:52:00,30.0,29.0,-100.00,SSE,150,0.0,0.0,97,0.00,,,0.01,0.000000,,2013-02-08 13:52:00,
2013-02-08 06:11:00,30.0,29.0,-100.00,SSE,150,0.0,0.0,97,0.00,,,0.01,0.000000,,2013-02-08 14:11:00,
2013-02-08 06:21:00,30.0,29.0,-100.00,SSE,150,0.0,0.0,97,0.00,,,0.01,0.000000,,2013-02-08 14:21:00,
2013-02-08 06:32:00,30.0,29.0,-100.00,SSE,150,0.0,0.0,97,0.00,,,0.01,0.000000,,2013-02-08 14:32:00,
2013-02-08 06:41:00,30.0,29.0,-100.00,SSE,150,0.0,0.0,97,0.00,,,0.01,0.000000,,2013-02-08 14:41:00,
2013-02-08 07:11:00,30.0,29.0,-100.00,SSE,150,0.0,0.0,97,0.00,,,-99.99,0.000000,,2013-02-08 15:11:00,
2013-02-08 07:21:00,30.0,29.0,-100.00,SSE,150,0.0,0.0,97,0.00,,,-99.99,0.000000,,2013-02-08 15:21:00,
2013-02-08 07:32:00,30.0,29.0,-100.00,SSE,150,0.0,0.0,97,0.00,,,-99.99,0.000000,,2013-02-08 15:32:00,
2013-02-08 07:41:00,30.0,29.0,-100.00,SSE,150,0.0,0.0,97,0.00,,,-99.99,0.000000,,2013-02-08 15:41:00,
2013-02-08 07:51:00,30.0,29.0,-100.00,SSE,150,0.0,0.0,97,0.00,,,-99.99,0.000000,,2013-02-08 15:51:00,
2013-02-08 08:21:00,31.0,30.0,-100.00,SSW,211,0.0,0.0,95,0.00,,,0.01,2.000000,,2013-02-08 16:21:00,
2013-02-08 08:32:00,31.0,30.0,-100.00,SSW,211,0.0,0.0,95,0.00,,,0.01,2.000000,,2013-02-08 16:32:00,
2013-02-08 08:41:00,31.0,30.0,-100.00,SSW,211,0.0,0.0,95,0.00,,,0.01,2.000000,,2013-02-08 16:41:00,
2013-02-08 08:51:00,31.0,30.0,-100.00,SSW,211,0.0,0.0,95,0.00,,,0.01,2.000000,,2013-02-08 16:51:00,
2013-02-08 08:52:00,32.0,30.0,-100.00,SSW,201,0.0,0.0,93,0.00,,,0.01,6.000000,,2013-02-08 16:52:00,
2013-02-08 09:12:00,32.0,30.0,-100.00,SSW,201,0.0,0.0,93,0.00,,,0.01,6.000000,,2013-02-08 17:12:00,
2013-02-08 09:22:00,32.0,30.0,-100.00,SSW,201,0.0,0.0,93,0.00,,,0.01,6.000000,,2013-02-08 17:22:00,
2013-02-08 09:32:00,32.0,30.0,-100.00,SSW,201,0.0,0.0,93,0.00,,,0.01,6.000000,,2013-02-08 17:32:00,
2013-02-08 09:42:00,32.0,30.0,-100.00,SSW,201,0.0,0.0,93,0.00,,,0.01,6.000000,,2013-02-08 17:42:00,
2013-02-08 09:52:00,32.0,30.0,-100.00,South,185,0.0,0.0,93,0.00,,,0.01,10.000000,,2013-02-08 17:52:00,
2013-02-08 10:12:00,32.0,30.0,-100.00,South,185,0.0,0.0,93,0.00,,,0.01,10.000000,,2013-02-08 18:12:00,
2013-02-08 10:24:00,32.0,30.0,-100.00,South,185,0.0,0.0,93,0.00,,,0.01,10.000000,,2013-02-08 18:24:00,
2013-02-08 10:33:00,32.0,30.0,-100.00,South,185,0.0,0.0,93,0.00,,,0.01,10.000000,,2013-02-08 18:33:00,
2013-02-08 10:42:00,32.0,30.0,-100.00,South,185,0.0,0.0,93,0.00,,,0.01,10.000000,,2013-02-08 18:42:00,
2013-02-08 10:52:00,35.0,30.0,-100.00,SW,215,1.0,3.0,83,0.00,,,-99.99,29.000000,,2013-02-08 18:52:00,
2013-02-08 11:22:00,35.0,30.0,-100.00,SW,215,1.0,3.0,83,0.00,,,-99.99,29.000000,,2013-02-08 19:22:00,
2013-02-08 11:32:00,35.0,30.0,-100.00,SW,215,1.0,3.0,83,0.00,,,-99.99,29.000000,,2013-02-08 19:32:00,
2013-02-08 11:42:00,35.0,30.0,-100.00,SW,215,1.0,3.0,83,0.00,,,-99.99,29.000000,,2013-02-08 19:42:00,
2013-02-08 11:52:00,35.0,31.0,-100.00,ENE,63,0.0,3.0,84,0.04,,,0.04,39.000000,,2013-02-08 19:52:00,
2013-02-08 12:11:00,35.0,31.0,-100.00,ENE,63,0.0,3.0,84,0.04,,,0.04,39.000000,,2013-02-08 20:11:00,
2013-02-08 12:21:00,35.0,31.0,-100.00,ENE,63,0.0,3.0,84,0.04,,,0.04,39.000000,,2013-02-08 20:21:00,
2013-02-08 12:31:00,35.0,31.0,-100.00,ENE,63,0.0,3.0,84,0.04,,,0.04,39.000000,,2013-02-08 20:31:00,
2013-02-08 12:41:00,35.0,31.0,-100.00,ENE,63,0.0,3.0,84,0.04,,,0.04,39.000000,,2013-02-08 20:41:00,
2013-02-08 12:52:00,35.0,31.0,-100.00,South,179,0.0,4.0,85,0.05,,,0.09,93.000000,,2013-02-08 20:52:00,
2013-02-08 13:11:00,35.0,31.0,-100.00,South,179,0.0,4.0,85,0.05,,,0.09,93.000000,,2013-02-08 21:11:00,
2013-02-08 13:21:00,35.0,31.0,-100.00,South,179,0.0,4.0,85,0.05,,,0.09,93.000000,,2013-02-08 21:21:00,
2013-02-08 13:32:00,35.0,31.0,-100.00,South,179,0.0,4.0,85,0.05,,,0.09,93.000000,,2013-02-08 21:32:00,
2013-02-08 13:41:00,35.0,31.0,-100.00,South,179,0.0,4.0,85,0.05,,,0.09,93.000000,,2013-02-08 21:41:00,
2013-02-08 14:11:00,35.0,31.0,-100.00,South,175,0.0,4.0,85,0.02,,,0.11,93.000000,,2013-02-08 22:11:00,
2013-02-08 14:21:00,35.0,31.0,-100.00,South,175,0.0,4.0,85,0.02,,,0.11,93.000000,,2013-02-08 22:21:00,
2013-02-08 14:31:00,35.0,31.0,-100.00,South,175,0.0,4.0,85,0.02,,,0.11,93.000000,,2013-02-08 22:31:00,
2013-02-08 14:41:00,35.0,31.0,-100.00,South,175,0.0,4.0,85,0.02,,,0.11,93.000000,,2013-02-08 22:41:00,
2013-02-08 14:51:00,35.0,31.0,-100.00,South,175,0.0,4.0,85,0.02,,,0.11,93.000000,,2013-02-08 22:51:00,
2013-02-08 14:52:00,33.0,31.0,-100.00,NE,47,1.0,4.0,91,0.01,,,0.12,66.000000,,2013-02-08 22:52:00,
2013-02-08 15:11:00,33.0,31.0,-100.00,NE,47,1.0,4.0,91,0.01,,,0.12,66.000000,,2013-02-08 23:11:00,
2013-02-08 15:21:00,33.0,31.0,-100.00,NE,47,1.0,4.0,91,0.01,,,0.12,66.000000,,2013-02-08 23:21:00,
2013-02-08 15:31:00,33.0,31.0,-100.00,NE,47,1.0,4.0,91,0.01,,,0.12,66.000000,,2013-02-08 23:31:00,
2013-02-08 15:41:00,33.0,31.0,-100.00,NE,47,1.0,4.0,91,0.01,,,0.12,66.000000,,2013-02-08 23:41:00,
2013-02-08 16:11:00,33.0,31.0,-100.00,WNW,295,1.0,4.0,93,0.00,,,0.12,41.000000,,2013-02-09 00:11:00,
2013-02-08 16:21:00,33.0,31.0,-100.00,WNW,295,1.0,4.0,93,0.00,,,0.12,41.000000,,2013-02-09 00:21:00,
2013-02-08 16:32:00,33.0,31.0,-100.00,WNW,295,1.0,4.0,93,0.00,,,0.12,41.000000,,2013-02-09 00:32:00,
2013-02-08 16:41:00,33.0,31.0,-100.00,WNW,295,1.0,4.0,93,0.00,,,0.12,41.000000,,2013-02-09 00:41:00,
2013-02-08 16:51:00,33.0,31.0,-100.00,WNW,295,1.0,4.0,93,0.00,,,0.12,41.000000,,2013-02-09 00:51:00,
2013-02-08 16:52:00,32.0,31.0,-100.00,NNE,32,0.0,4.0,95,0.00,,,0.12,7.000000,,2013-02-09 00:52:00,
2013-02-08 17:11:00,32.0,31.0,-100.00,NNE,32,0.0,4.0,95,0.00,,,0.12,7.000000,,2013-02-09 01:11:00,
2013-02-08 17:21:00,32.0,31.0,-100.00,NNE,32,0.0,4.0,95,0.00,,,0.12,7.000000,,2013-02-09 01:21:00,
2013-02-08 17:31:00,32.0,31.0,-100.00,NNE,32,0.0,4.0,95,0.00,,,0.12,7.000000,,2013-02-09 01:31:00,
2013-02-08 17:41:00,32.0,31.0,-100.00,NNE,32,0.0,4.0,95,0.00,,,0.12,7.000000,,2013-02-09 01:41:00,
2013-02-08 17:52:00,31.0,30.0,-100.00,SSE,163,0.0,3.0,95,0.00,,,0.12,0.000000,,2013-02-09 01:52:00,
2013-02-08 18:21:00,31.0,30.0,-100.00,SSE,163,0.0,3.0,95,0.00,,,0.12,0.000000,,2013-02-09 02:21:00,
2013-02-08 18:32:00,31.0,30.0,-100.00,SSE,163,0.0,3.0,95,0.00,,,0.12,0.000000,,2013-02-09 02:32:00,
2013-02-08 18:41:00,31.0,30.0,-100.00,SSE,163,0.0,3.0,95,0.00,,,0.12,0.000000,,2013-02-09 02:41:00,
2013-02-08 19:11:00,31.0,30.0,-100.00,ESE,107,0.0,2.0,96,0.00,,,0.12,0.000000,,2013-02-09 03:11:00,
2013-02-08 19:21:00,31.0,30.0,-100.00,ESE,107,0.0,2.0,96,0.00,,,0.12,0.000000,,2013-02-09 03:21:00,
2013-02-08 19:32:00,31.0,30.0,-100.00,ESE,107,0.0,2.0,96,0.00,,,0.12,0.000000,,2013-02-09 03:32:00,
2013-02-08 19:41:00,31.0,30.0,-100.00,ESE,107,0.0,2.0,96,0.00,,,0.12,0.000000,,2013-02-09 03:41:00,
2013-02-08 19:51:00,31.0,30.0,-100.00,ESE,107,0.0,2.0,96,0.00,,,0.12,0.000000,,2013-02-09 03:51:00,
2013-02-08 19:52:00,31.0,30.0,-100.00,NE,40,0.0,4.0,95,0.00,,,0.12,0.000000,,2013-02-09 03:52:00,
2013-02-08 20:22:00,31.0,30.0,-100.00,NE,40,0.0,4.0,95,0.00,,,0.12,0.000000,,2013-02-09 04:22:00,
2013-02-08 20:32:00,31.0,30.0,-100.00,NE,40,0.0,4.0,95,0.00,,,0.12,0.000000,,2013-02-09 04:32:00,
2013-02-08 20:42:00,31.0,30.0,-100.00,NE,40,0.0,4.0,95,0.00,,,0.12,0.000000,,2013-02-09 04:42:00,
2013-02-08 20:52:00,31.0,29.0,-100.00,NE,43,0.0,3.0,93,0.00,,,0.12,0.000000,,2013-02-09 04:52:00,
2013-02-08 21:22:00,31.0,29.0,-100.00,NE,43,0.0,3.0,93,0.00,,,0.12,0.000000,,2013-02-09 05:22:00,
2013-02-08 21:31:00,31.0,29.0,-100.00,NE,43,0.0,3.0,93,0.00,,,0.12,0.000000,,2013-02-09 05:31:00,
2013-02-08 21:41:00,31.0,29.0,-100.00,NE,43,0.0,3.0,93,0.00,,,0.12,0.000000,,2013-02-09 05:41:00,
2013-02-08 22:11:00,29.0,28.0,-100.00,North,349,0.0,2.0,96,0.00,,,0.12,0.000000,,2013-02-09 06:11:00,
2013-02-08 22:21:00,29.0,28.0,-100.00,North,349,0.0,2.0,96,0.00,,,0.12,0.000000,,2013-02-09 06:21:00,
2013-02-08 22:31:00,29.0,28.0,-100.00,North,349,0.0,2.0,96,0.00,,,0.12,0.000000,,2013-02-09 06:31:00,
2013-02-08 22:41:00,29.0,28.0,-100.00,North,349,0.0,2.0,96,0.00,,,0.12,0.000000,,2013-02-09 06:41:00,
2013-02-08 22:51:00,29.0,28.0,-100.00,North,349,0.0,2.0,96,0.00,,,0.12,0.000000,,2013-02-09 06:51:00,
2013-02-08 23:11:00,30.0,29.0,-100.00,North,351,0.0,0.0,97,0.00,,,-99.99,0.000000,,2013-02-09 07:11:00,
2013-02-08 23:21:00,30.0,29.0,-100.00,North,351,0.0,0.0,97,0.00,,,-99.99,0.000000,,2013-02-09 07:21:00,
2013-02-08 23:31:00,30.0,29.0,-100.00,North,351,0.0,0.0,97,0.00,,,-99.99,0.000000,,2013-02-09 07:31:00,
2013-02-08 23:42:00,30.0,29.0,-100.00,North,351,0.0,0.0,97,0.00,,,-99.99,0.000000,,2013-02-09 07:42:00,
2013-02-08 23:51:00,30.0,29.0,-100.00,North,351,0.0,0.0,97,0.00,,,-99.99,0.000000,,2013-02-09 07:51:00,